Time,TemperatureF,DewpointF,PressureIn,WindDirection,WindDirectionDegrees,WindSpeedMPH,WindSpeedGustMPH,Humidity,HourlyPrecipIn,Conditions,Clouds,dailyrainin,SoftwareType,DateUTC
2013-08-19 00:03:00,61.5,60.0,29.97,SW,236,0.0,-999.0,93,-99.99,,,0.00,weatherlink.com 1.10,2013-08-19 04:03:00,
2013-08-19 00:18:00,61.0,59.0,29.98,SW,236,0.0,-999.0,93,-99.99,,,0.00,weatherlink.com 1.10,2013-08-19 04:18:00,
2013-08-19 00:33:00,60.5,59.0,29.97,SW,236,0.0,-999.0,93,-99.99,,,0.00,weatherlink.com 1.10,2013-08-19 04:33:00,
2013-08-19 00:48:00,60.6,59.0,29.97,SW,236,0.0,-999.0,95,-99.99,,,0.00,weatherlink.com 1.10,2013-08-19 04:48:00,
2013-08-19 01:03:00,60.4,59.0,29.96,SW,236,0.0,-999.0,94,-99.99,,,0.00,weatherlink.com 1.10,2013-08-19 05:03:00,
2013-08-19 01:18:00,60.5,59.0,29.97,SW,236,0.0,-999.0,95,-99.99,,,0.00,weatherlink.com 1.10,2013-08-19 05:18:00,
2013-08-19 01:33:00,60.4,59.0,29.97,SW,236,0.0,-999.0,95,-99.99,,,0.00,weatherlink.com 1.10,2013-08-19 05:33:00,
2013-08-19 01:48:00,59.9,59.0,29.96,SW,236,0.0,-999.0,95,-99.99,,,0.00,weatherlink.com 1.10,2013-08-19 05:48:00,
2013-08-19 02:03:00,60.0,59.0,29.95,SW,236,2.0,-999.0,96,-99.99,,,0.00,weatherlink.com 1.10,2013-08-19 06:03:00,
2013-08-19 02:18:00,60.4,59.0,29.95,SW,236,1.0,-999.0,96,-99.99,,,0.00,weatherlink.com 1.10,2013-08-19 06:18:00,
2013-08-19 02:33:00,60.5,59.0,29.94,SW,236,0.0,-999.0,96,-99.99,,,0.00,weatherlink.com 1.10,2013-08-19 06:33:00,
2013-08-19 02:48:00,60.0,59.0,29.94,SW,236,0.0,-999.0,96,-99.99,,,0.00,weatherlink.com 1.10,2013-08-19 06:48:00,
2013-08-19 03:03:00,60.2,59.0,29.94,SW,236,0.0,-999.0,96,-99.99,,,0.00,weatherlink.com 1.10,2013-08-19 07:03:00,
2013-08-19 03:18:00,59.9,59.0,29.93,SW,236,0.0,-999.0,96,-99.99,,,0.00,weatherlink.com 1.10,2013-08-19 07:18:00,
2013-08-19 03:33:00,59.8,59.0,29.93,SW,236,0.0,-999.0,96,-99.99,,,0.00,weatherlink.com 1.10,2013-08-19 07:33:00,
2013-08-19 03:48:00,59.4,58.0,29.93,SW,236,0.0,-999.0,96,-99.99,,,0.00,weatherlink.com 1.10,2013-08-19 07:48:00,
2013-08-19 04:03:00,59.1,58.0,29.92,SW,236,0.0,-999.0,96,-99.99,,,0.00,weatherlink.com 1.10,2013-08-19 08:03:00,
2013-08-19 04:18:00,58.9,58.0,29.92,SW,236,0.0,-999.0,97,-99.99,,,0.00,weatherlink.com 1.10,2013-08-19 08:18:00,
2013-08-19 04:33:00,58.9,58.0,29.92,SW,236,0.0,-999.0,97,-99.99,,,0.00,weatherlink.com 1.10,2013-08-19 08:33:00,
2013-08-19 04:48:00,58.7,58.0,29.92,SW,236,1.0,-999.0,97,-99.99,,,0.00,weatherlink.com 1.10,2013-08-19 08:48:00,
2013-08-19 05:03:00,58.0,57.0,29.92,SW,236,0.0,-999.0,96,-99.99,,,0.00,weatherlink.com 1.10,2013-08-19 09:03:00,
2013-08-19 05:18:00,58.4,58.0,29.92,SW,236,0.0,-999.0,97,-99.99,,,0.00,weatherlink.com 1.10,2013-08-19 09:18:00,
2013-08-19 05:33:00,58.3,58.0,29.92,SW,236,0.0,-999.0,97,-99.99,,,0.00,weatherlink.com 1.10,2013-08-19 09:33:00,
2013-08-19 05:48:00,58.3,58.0,29.93,SW,236,0.0,-999.0,97,-99.99,,,0.00,weatherlink.com 1.10,2013-08-19 09:48:00,
2013-08-19 06:03:00,57.6,57.0,29.92,SW,236,0.0,-999.0,96,-99.99,,,0.00,weatherlink.com 1.10,2013-08-19 10:03:00,
2013-08-19 06:18:00,57.9,57.0,29.92,SW,236,0.0,-999.0,97,-99.99,,,0.00,weatherlink.com 1.10,2013-08-19 10:18:00,
2013-08-19 06:33:00,58.3,58.0,29.92,SW,236,0.0,-999.0,97,-99.99,,,0.00,weatherlink.com 1.10,2013-08-19 10:33:00,
2013-08-19 06:48:00,58.5,58.0,29.92,SW,236,0.0,-999.0,97,-99.99,,,0.00,weatherlink.com 1.10,2013-08-19 10:48:00,
2013-08-19 07:03:00,59.6,59.0,29.92,SW,236,0.0,-999.0,97,-99.99,,,0.00,weatherlink.com 1.10,2013-08-19 11:03:00,
2013-08-19 07:18:00,60.9,60.0,29.92,SW,236,0.0,-999.0,98,-99.99,,,0.00,weatherlink.com 1.10,2013-08-19 11:18:00,
2013-08-19 07:33:00,61.8,61.0,29.92,SW,236,1.0,-999.0,97,-99.99,,,0.00,weatherlink.com 1.10,2013-08-19 11:33:00,
2013-08-19 07:48:00,63.0,62.0,29.91,SW,236,3.0,-999.0,95,-99.99,,,0.00,weatherlink.com 1.10,2013-08-19 11:48:00,
2013-08-19 08:03:00,64.4,62.0,29.91,SW,236,2.0,-999.0,92,-99.99,,,0.00,weatherlink.com 1.10,2013-08-19 12:03:00,
2013-08-19 08:18:00,65.7,63.0,29.91,SW,236,2.0,-999.0,90,-99.99,,,0.00,weatherlink.com 1.10,2013-08-19 12:18:00,
2013-08-19 08:33:00,67.3,63.0,29.90,SW,236,1.0,-999.0,87,-99.99,,,0.00,weatherlink.com 1.10,2013-08-19 12:33:00,
2013-08-19 08:48:00,68.3,63.0,29.90,SW,236,0.0,-999.0,83,-99.99,,,0.00,weatherlink.com 1.10,2013-08-19 12:48:00,
2013-08-19 09:03:00,68.9,63.0,29.90,SW,236,3.0,-999.0,80,-99.99,,,0.00,weatherlink.com 1.10,2013-08-19 13:03:00,
2013-08-19 09:18:00,69.9,63.0,29.89,West,271,6.0,-999.0,78,-99.99,,,0.00,weatherlink.com 1.10,2013-08-19 13:18:00,
2013-08-19 09:33:00,71.0,63.0,29.90,West,263,4.0,-999.0,76,-99.99,,,0.00,weatherlink.com 1.10,2013-08-19 13:33:00,
2013-08-19 09:48:00,72.1,63.0,29.89,West,259,4.0,-999.0,73,-99.99,,,0.00,weatherlink.com 1.10,2013-08-19 13:48:00,
2013-08-19 10:03:00,72.6,63.0,29.89,WSW,242,2.0,-999.0,72,-99.99,,,0.00,weatherlink.com 1.10,2013-08-19 14:03:00,
2013-08-19 10:18:00,73.5,62.0,29.89,West,268,6.0,-999.0,68,-99.99,,,0.00,weatherlink.com 1.10,2013-08-19 14:18:00,
2013-08-19 10:33:00,74.9,64.0,29.89,WNW,287,5.0,-999.0,69,-99.99,,,0.00,weatherlink.com 1.10,2013-08-19 14:33:00,
2013-08-19 10:48:00,75.1,63.0,29.89,WNW,295,4.0,-999.0,67,-99.99,,,0.00,weatherlink.com 1.10,2013-08-19 14:48:00,
2013-08-19 11:03:00,75.1,63.0,29.89,WNW,291,7.0,-999.0,66,-99.99,,,0.00,weatherlink.com 1.10,2013-08-19 15:03:00,
2013-08-19 11:18:00,75.1,64.0,29.88,West,271,6.0,-999.0,69,-99.99,,,0.00,weatherlink.com 1.10,2013-08-19 15:18:00,
2013-08-19 11:33:00,75.7,64.0,29.87,WNW,291,6.0,-999.0,68,-99.99,,,0.00,weatherlink.com 1.10,2013-08-19 15:33:00,
2013-08-19 11:48:00,76.6,64.0,29.86,West,259,2.0,-999.0,66,-99.99,,,0.00,weatherlink.com 1.10,2013-08-19 15:48:00,
2013-08-19 12:03:00,76.5,64.0,29.86,WSW,254,2.0,-999.0,66,-99.99,,,0.00,weatherlink.com 1.10,2013-08-19 16:03:00,
2013-08-19 12:18:00,76.4,64.0,29.86,WSW,248,5.0,-999.0,65,-99.99,,,0.00,weatherlink.com 1.10,2013-08-19 16:18:00,
2013-08-19 12:33:00,77.1,63.0,29.85,WNW,283,6.0,-999.0,63,-99.99,,,0.00,weatherlink.com 1.10,2013-08-19 16:33:00,
2013-08-19 12:48:00,78.5,64.0,29.85,WNW,298,4.0,-999.0,62,-99.99,,,0.00,weatherlink.com 1.10,2013-08-19 16:48:00,
2013-08-19 13:03:00,79.3,65.0,29.85,NW,304,11.0,-999.0,61,-99.99,,,0.00,weatherlink.com 1.10,2013-08-19 17:03:00,
2013-08-19 13:18:00,79.6,64.0,29.84,West,271,4.0,-999.0,60,-99.99,,,0.00,weatherlink.com 1.10,2013-08-19 17:18:00,
2013-08-19 13:33:00,80.1,64.0,29.84,WNW,295,7.0,-999.0,58,-99.99,,,0.00,weatherlink.com 1.10,2013-08-19 17:33:00,
2013-08-19 13:48:00,80.3,63.0,29.83,WSW,251,6.0,-999.0,56,-99.99,,,0.00,weatherlink.com 1.10,2013-08-19 17:48:00,
2013-08-19 14:03:00,81.2,62.0,29.82,West,280,13.0,-999.0,53,-99.99,,,0.00,weatherlink.com 1.10,2013-08-19 18:03:00,
2013-08-19 14:18:00,81.7,63.0,29.82,West,279,9.0,-999.0,53,-99.99,,,0.00,weatherlink.com 1.10,2013-08-19 18:18:00,
2013-08-19 14:33:00,82.0,63.0,29.82,West,261,5.0,-999.0,53,-99.99,,,0.00,weatherlink.com 1.10,2013-08-19 18:33:00,
2013-08-19 14:48:00,82.4,65.0,29.82,NW,309,6.0,-999.0,55,-99.99,,,0.00,weatherlink.com 1.10,2013-08-19 18:48:00,
2013-08-19 15:03:00,82.2,64.0,29.81,West,281,6.0,-999.0,54,-99.99,,,0.00,weatherlink.com 1.10,2013-08-19 19:03:00,
2013-08-19 15:18:00,82.6,63.0,29.82,West,281,13.0,-999.0,51,-99.99,,,0.00,weatherlink.com 1.10,2013-08-19 19:18:00,
2013-08-19 15:33:00,82.0,64.0,29.82,West,265,4.0,-999.0,54,-99.99,,,0.00,weatherlink.com 1.10,2013-08-19 19:33:00,
2013-08-19 15:48:00,82.1,64.0,29.81,West,273,7.0,-999.0,55,-99.99,,,0.00,weatherlink.com 1.10,2013-08-19 19:48:00,
2013-08-19 16:03:00,82.0,64.0,29.81,West,273,5.0,-999.0,54,-99.99,,,0.00,weatherlink.com 1.10,2013-08-19 20:03:00,
2013-08-19 16:18:00,82.3,64.0,29.81,West,275,8.0,-999.0,54,-99.99,,,0.00,weatherlink.com 1.10,2013-08-19 20:18:00,
2013-08-19 16:33:00,81.5,64.0,29.81,WNW,284,6.0,-999.0,56,-99.99,,,0.00,weatherlink.com 1.10,2013-08-19 20:33:00,
2013-08-19 16:48:00,81.6,64.0,29.81,West,270,5.0,-999.0,55,-99.99,,,0.00,weatherlink.com 1.10,2013-08-19 20:48:00,
2013-08-19 17:03:00,82.1,64.0,29.82,WNW,302,4.0,-999.0,55,-99.99,,,0.00,weatherlink.com 1.10,2013-08-19 21:03:00,
2013-08-19 17:18:00,81.9,65.0,29.82,West,265,7.0,-999.0,56,-99.99,,,0.00,weatherlink.com 1.10,2013-08-19 21:18:00,
2013-08-19 17:33:00,81.5,64.0,29.82,WNW,293,5.0,-999.0,56,-99.99,,,0.00,weatherlink.com 1.10,2013-08-19 21:33:00,
2013-08-19 17:48:00,81.2,64.0,29.82,West,279,4.0,-999.0,57,-99.99,,,0.00,weatherlink.com 1.10,2013-08-19 21:48:00,
2013-08-19 18:03:00,81.0,64.0,29.82,West,278,6.0,-999.0,57,-99.99,,,0.00,weatherlink.com 1.10,2013-08-19 22:03:00,
2013-08-19 18:18:00,80.4,65.0,29.82,West,279,2.0,-999.0,59,-99.99,,,0.00,weatherlink.com 1.10,2013-08-19 22:18:00,
2013-08-19 18:33:00,79.7,65.0,29.83,West,266,0.0,-999.0,62,-99.99,,,0.00,weatherlink.com 1.10,2013-08-19 22:33:00,
2013-08-19 18:48:00,78.9,65.0,29.83,West,267,3.0,-999.0,62,-99.99,,,0.00,weatherlink.com 1.10,2013-08-19 22:48:00,
2013-08-19 19:03:00,77.7,65.0,29.83,West,269,0.0,-999.0,65,-99.99,,,0.00,weatherlink.com 1.10,2013-08-19 23:03:00,
2013-08-19 19:18:00,76.3,64.0,29.83,West,261,4.0,-999.0,66,-99.99,,,0.00,weatherlink.com 1.10,2013-08-19 23:18:00,
2013-08-19 19:33:00,75.6,64.0,29.84,West,262,3.0,-999.0,68,-99.99,,,0.00,weatherlink.com 1.10,2013-08-19 23:33:00,
2013-08-19 19:48:00,74.6,64.0,29.84,West,262,2.0,-999.0,69,-99.99,,,0.00,weatherlink.com 1.10,2013-08-19 23:48:00,
2013-08-19 20:03:00,73.8,64.0,29.84,West,262,0.0,-999.0,71,-99.99,,,0.00,weatherlink.com 1.10,2013-08-20 00:03:00,
2013-08-19 20:18:00,73.1,64.0,29.84,West,262,0.0,-999.0,72,-99.99,,,0.00,weatherlink.com 1.10,2013-08-20 00:18:00,
2013-08-19 20:33:00,72.4,64.0,29.85,West,262,0.0,-999.0,75,-99.99,,,0.00,weatherlink.com 1.10,2013-08-20 00:33:00,
2013-08-19 20:48:00,71.5,64.0,29.85,West,262,1.0,-999.0,76,-99.99,,,0.00,weatherlink.com 1.10,2013-08-20 00:48:00,
2013-08-19 21:03:00,71.2,64.0,29.85,West,262,0.0,-999.0,77,-99.99,,,0.00,weatherlink.com 1.10,2013-08-20 01:03:00,
2013-08-19 21:18:00,70.8,64.0,29.86,West,262,1.0,-999.0,78,-99.99,,,0.00,weatherlink.com 1.10,2013-08-20 01:18:00,
2013-08-19 21:33:00,70.6,63.0,29.86,West,262,0.0,-999.0,78,-99.99,,,0.00,weatherlink.com 1.10,2013-08-20 01:33:00,
2013-08-19 21:48:00,70.3,64.0,29.86,West,262,0.0,-999.0,79,-99.99,,,0.00,weatherlink.com 1.10,2013-08-20 01:48:00,
2013-08-19 22:03:00,70.3,63.0,29.86,West,262,0.0,-999.0,78,-99.99,,,0.00,weatherlink.com 1.10,2013-08-20 02:03:00,
2013-08-19 22:18:00,70.1,63.0,29.87,West,262,0.0,-999.0,78,-99.99,,,0.00,weatherlink.com 1.10,2013-08-20 02:18:00,
2013-08-19 22:33:00,69.7,63.0,29.86,West,262,0.0,-999.0,79,-99.99,,,0.00,weatherlink.com 1.10,2013-08-20 02:33:00,
2013-08-19 22:48:00,69.8,63.0,29.86,West,262,0.0,-999.0,78,-99.99,,,0.00,weatherlink.com 1.10,2013-08-20 02:48:00,
2013-08-19 23:03:00,70.4,63.0,29.87,West,262,2.0,-999.0,76,-99.99,,,0.00,weatherlink.com 1.10,2013-08-20 03:03:00,
2013-08-19 23:18:00,70.6,63.0,29.87,West,262,0.0,-999.0,77,-99.99,,,0.00,weatherlink.com 1.10,2013-08-20 03:18:00,
2013-08-19 23:33:00,70.4,63.0,29.87,West,262,0.0,-999.0,77,-99.99,,,0.00,weatherlink.com 1.10,2013-08-20 03:33:00,
2013-08-19 23:48:00,70.9,63.0,29.87,West,264,0.0,-999.0,77,-99.99,,,0.00,weatherlink.com 1.10,2013-08-20 03:48:00,